Aureole 2 Rocket - Orbit

View from above orbital plane
View from above orbital plane
View from above satellite
View from above satellite

Ground track
Ground track

The orbit data is extracted from the following two-line orbital elements,

1 07004U 73107B   13145.52553069  .00025070  00000-0  80473-3 0  3104
2 07004 073.9557 294.5092 0350135 174.5776 219.8655 14.89192927 12432
Epoch (UTC): 25 May 2013 12:36:45
Eccentricity: 0.0350135
inclination: 73.9557°
perigee height: 356 km
apogee height: 845 km
right ascension of ascending node: 294.5092°
argument of perigee: 174.5776°
revolutions per day: 14.89192927
mean anomaly at epoch: 219.8655°
orbit number at epoch: 1243

The dashed part of the orbit path shows where the satellite is in the earth's shadow,  

Developed and maintained by Chris Peat, Heavens-Above GmbH. Please read the updated FAQ before sending e-mail. Imprint. DLR